This is the latest recevied weather packets stored in our database for station/object ON5MM-5. If no packets are shown the sender has not sent any weather packets the latest 10 day(s).
| Time | Temp. | Humidity | Pressure | Rain* | Wind** | Luminosity | Snow |
|---|---|---|---|---|---|---|---|
| 1777307103 | 18.33° C | 30% | 1021.8 hPa | 0 mm | 1.34 m/s, ° | - | - |
| 1777306802 | 18.33° C | 30% | 1021.8 hPa | 0 mm | 1.79 m/s, ° | - | - |
| 1777306503 | 18.33° C | 29% | 1021.8 hPa | 0 mm | 1.34 m/s, ° | - | - |
| 1777306202 | 18.89° C | 28% | 1021.9 hPa | 0 mm | 1.79 m/s, ° | - | - |
| 1777305903 | 18.89° C | 28% | 1021.8 hPa | 0 mm | 2.24 m/s, ° | - | - |
| 1777305603 | 19.44° C | 30% | 1021.9 hPa | 0 mm | 0.89 m/s, ° | - | - |
| 1777305302 | 18.89° C | 32% | 1021.9 hPa | 0 mm | 1.79 m/s, ° | - | - |
| 1777305002 | 18.89° C | 31% | 1021.9 hPa | 0 mm | 1.79 m/s, ° | - | - |
| 1777304702 | 18.89° C | 32% | 1022 hPa | 0 mm | 1.79 m/s, ° | - | - |
| 1777304403 | 18.89° C | 33% | 1022 hPa | 0 mm | 1.34 m/s, ° | - | - |
| 1777304102 | 18.89° C | 32% | 1022.1 hPa | 0 mm | 1.34 m/s, ° | - | - |
| 1777303802 | 18.89° C | 33% | 1022.1 hPa | 0 mm | 1.79 m/s, ° | - | - |
| 1777303503 | 18.89° C | 30% | 1022.1 hPa | 0 mm | 1.79 m/s, ° | - | - |
| 1777303202 | 18.89° C | 30% | 1022.1 hPa | 0 mm | 1.34 m/s, ° | - | - |
| 1777302903 | 19.44° C | 28% | 1022.2 hPa | 0 mm | 1.79 m/s, ° | - | - |
| 1777302603 | 19.44° C | 29% | 1022.2 hPa | 0 mm | 1.34 m/s, ° | - | - |
| 1777302303 | 19.44° C | 29% | 1022.2 hPa | 0 mm | 0.89 m/s, ° | - | - |
| 1777302003 | 19.44° C | 27% | 1022.3 hPa | 0 mm | 1.79 m/s, ° | - | - |
| 1777301703 | 20° C | 26% | 1022.2 hPa | 0 mm | 1.34 m/s, ° | - | - |
| 1777301402 | 20° C | 26% | 1022.3 hPa | 0 mm | 0.89 m/s, ° | - | - |
| 1777301103 | 20° C | 28% | 1022.4 hPa | 0 mm | 0.89 m/s, ° | - | - |
| 1777300802 | 19.44° C | 27% | 1022.5 hPa | 0 mm | 1.79 m/s, ° | - | - |
| 1777300503 | 19.44° C | 29% | 1022.6 hPa | 0 mm | 1.34 m/s, ° | - | - |
| 1777300202 | 19.44° C | 29% | 1022.6 hPa | 0 mm | 1.34 m/s, ° | - | - |
| 1777299903 | 19.44° C | 28% | 1022.6 hPa | 0 mm | 1.34 m/s, ° | - | - |
* Rain latest hour (hover to see other rain measurements)
** Current wind speed in m/s (hover to see current wind gust speed)